DECAYED

COSMOS 2251 DEB, 34390 (Decayed)

Orbit data source: Space-Track

COSMOS 2251 DEB, 34390 was space debris in LEO originally from a launch on Wed, 16 Jun 1993 UTC launched from the Plesetsk Missile And Space Complex (PKMTR). The debris from Iridium 33, an American commercial communications satellite, has been tracked extensively since its accidental collision with the defunct Russian satellite Cosmos 2251 in 2009. This event, occurring at high speed in low Earth orbit (LEO), generated thousands of pieces of space debris, significantly increasing the risk of further collisions. The Iridium 33 debris cloud has impacted space traffic management and orbital debris mitigation strategies, making it a subject of ongoing study in space situational awareness.

Not visible in the next 10 days
Identifier
34390, 1993-036QF
Orbit
Decayed
Country
Flag of CISCIS
Related business
Manufacturer
Unknown
Mission
Decayed spacecraft
Bus & Motor
Unknown
Mass
Unknown
Launch date (UTC)
1993-06-16 (33 years ago)
Launch vehicle
Unknown
Launch site
Plesetsk Missile And Space Complex (PKMTR)
Object type
Payload
Rocket body
Debris
Shape & HBR
Unknown shape, 0.1 m
Radar Cross Section
Small (<0.1 m²)

Expand to show TLE details & history
Last TLE update: 3 months ago

TLE from 3 months ago
0 COSMOS 2251 DEB
1 34390U 93036QF  25324.03508953  .10634072  18921-5  56888-2 0  9995
2 34390  74.0196 297.9165 0010434 195.3982 230.1715 16.19662585889919
Epoch: 2025-11-20T00:50Z
TLE epoch observation values (Epoch: 2025-11-20T00:50:31.735Z)
Latitude
61.11551°
Longitude
-102.94033°
Altitude
234.987 km
Speed
7.769 km/s
True Right ascension
21h 55m 57s
True Declination
60° 57' 30"
Sunlit
Object was in full shadow at epoch
Visualization orbit readout
Latitude
Unknown
Longitude
Unknown
Altitude
Unknown
Speed
Unknown
Apparent Right ascension
Unknown
Apparent Declination
Unknown
Sunlit
N/A
Visualization observer readout
Local Sidereal Time
17:06:02
Azimuth
Unknown
Elevation
Unknown
Doppler factor
Unknown
Orbital elements
Apogee altitude
224.777 km
Perigee altitude
211.012 km
Semi-major axis
6,596.032 km
Eccentricity
0.00104
Inclination
74.0196°
RAAN
297.9165°
Arg. of periapsis
195.3982°
True anomaly
230.07976°
Mean anomaly
230.1715°
Eccentric anomaly
230.12562°
Mean motion
4.05153 °/min
Orbital period
88.86 mins
BSTAR
0.0056888

Documentation

Showing up to 5 results
|